Preview of NWS' New Version of Forecast
This preview is not operational and should not be used for support decisions.

Regional Weather Roundup (RWR)

Issued by National Weather Service (NWS)

                            
000
ASUS43 KMKX 221311
RWRWI 

WISCONSIN REGIONAL WEATHER ROUNDUP
NATIONAL WEATHER SERVICE MILWAUKEE/SULLIVAN WI
800 AM CDT MON JUL 22 2019

NOTE: "FAIR" INDICATES FEW OR NO CLOUDS BELOW 12,000 FEET WITH NO
SIGNIFICANT WEATHER AND/OR OBSTRUCTIONS TO VISIBILITY.

WIZ001-002-006>008-014>016-023>028-221400-
NORTHWEST WISCONSIN
  
CITY           SKY/WX    TMP DP  RH WIND       PRES   REMARKS
SUPERIOR ARPT  FAIR      62  53  72 NW5       30.19S                  
ASHLAND        FAIR      61  54  77 W7        30.17S                  
HAYWARD        FAIR      57  56  96 CALM      30.21R                  
SIREN          PTSUNNY   56  51  83 CALM      30.22S                  
CUMBERLAND     NOT AVBL                                               
RICE LAKE      FAIR      63  50  63 N3        30.23R                  
CHETEK         FAIR      62  57  82 N3        30.21R                  
LADYSMITH      FAIR      60  55  83 N7        30.21R                  
EAU CLAIRE     PTSUNNY   65  55  70 N8        30.18R                  
MENOMONIE      PTSUNNY   60  55  84 N9G18     30.20R                  
NEW RICHMOND   FAIR      61  52  71 N6        30.22R                  
OSCEOLA        FAIR      59  53  81 N3        30.26R                  
$$
 
WIZ003>005-009-010-017-018-221400-
NORTH CENTRAL WISCONSIN
  
CITY           SKY/WX    TMP DP  RH WIND       PRES   REMARKS
MANITOWISH WTR FAIR      58  58  99 NW8       30.17S                  
ARBOR VITAE    FAIR      62  56  82 NW5       30.16S                  
WOODRUFF       FAIR      62  56  82 NW5       30.16S                  
RHINELANDER    FAIR      62  52  69 NW5       30.17S                  
EAGLE RIVER    FAIR      60  53  78 NW3       30.15S                  
LAND O LAKES   FAIR      61  52  74 NW3       30.17S                  
PHILLIPS       FAIR      59  55  84 NW3       30.18S                  
TOMAHAWK       FAIR      58  54  87 NW3       30.18R                  
MEDFORD        FAIR      60  53  77 N5        30.18R                  
MERRILL        FAIR      61  56  84 N5        30.17S                  
$$
 
WIZ029-030-035-036-043>047-221400-
CENTRAL WISCONSIN
  
CITY           SKY/WX    TMP DP  RH WIND       PRES   REMARKS
WAUSAU         FAIR      62  55  77 N7        30.15R                  
MOSINEE        MOSUNNY   61  55  82 NW7       30.17R                  
MARSHFIELD     FAIR      63  55  75 NW7       30.16R                  
STEVENS POINT  FAIR      60  53  75 N6        30.16R                  
WAUPACA        NOT AVBL                                               
WAUTOMA        FAIR      65  57  75 N7        30.14S                  
WISC RAPIDS    FAIR      66  52  60 NE10      30.16R                  
CAMP DOUGLAS   MOSUNNY   66  57  72 N6        30.14R                  
$$
 
WIZ011>013-019>022-031-037>040-048>050-221400-
NORTHEAST WISCONSIN
  
CITY           SKY/WX    TMP DP  RH WIND       PRES   REMARKS
ANTIGO         FAIR      59  54  83 N10       30.16R                  
SHAWANO        FAIR      65  55  70 NW6       30.12S                  
OCONTO         FAIR      62  54  73 N3        30.11R                  
STURGEON BAY   FAIR      65  56  72 N10       30.10S                  
GREEN BAY      FAIR      65  55  70 N9        30.11S                  
MANITOWOC      FAIR      65  54  67 N9        30.10S                  
APPLETON       SUNNY     63  48  59 N8        30.11R                  
CLINTONVILLE   FAIR      64  53  67 N6        30.13R                  
OSHKOSH        FAIR      65  54  67 N9        30.12R                  
$$
 
WIZ032>034-041-042-053>061-221400-
SOUTHWEST WISCONSIN
  
CITY           SKY/WX    TMP DP  RH WIND       PRES   REMARKS
LA CROSSE      CLOUDY    67  58  72 N8        30.15R                  
SPARTA         PTSUNNY   64  57  77 N7        30.16R                  
VIROQUA        FAIR      64  62  93 N5        30.16R                  
BOSCOBEL       FAIR      69  62  78 NE3       30.14R                  
PRAIRIE DU CHI FAIR      68  60  73 N3        30.13R                  
PLATTEVILLE    FAIR      66  63  91 NE9       30.13R                  
$$

WIZ056-057-062-063-064-067-068-221400-
SOUTH CENTRAL WISCONSIN
  
CITY           SKY/WX    TMP DP  RH WIND       PRES   REMARKS
REEDSBURG      FAIR      65  60  84 NE6       30.14R                  
BARABOO/DELLS  FAIR      64  58  80 NE7       30.14R                  
LONE ROCK      FAIR      68  60  75 NE5       30.13R                  
MINERAL POINT  FAIR      66  61  82 NE13      30.13R                  
MADISON        FAIR      67  56  67 NE10      30.12R                  
MIDDLETON      FAIR      67  58  73 NE8       30.13R                  
WATERTOWN      NOT AVBL                                               
MONROE           N/A    N/A N/A N/A NE13      30.11R                  
JANESVILLE     PTSUNNY   66  54  63 NE12      30.10R                  
$$
 
WIZ051-052-058>065-066-070>072-221400-
SOUTHEAST WISCONSIN
  
CITY           SKY/WX    TMP DP  RH WIND       PRES   REMARKS
MILWAUKEE      PTSUNNY   66  48  52 N10G23    30.09R                  
WAUKESHA       CLOUDY    63  52  67 N7        30.11R                  
MILWAUKEE/TIMM CLOUDY    64  46  52 N7        30.11R                  
RACINE         FAIR      63  55  75 N14       30.10R                  
KENOSHA        CLOUDY    65  56  72 N10       30.09R                  
FOND DU LAC    FAIR      68  52  56 N13       30.12R                  
SHEBOYGAN      FAIR      66  54  65 N12       30.10R                  
WEST BEND      FAIR      63  50  63 N12       30.11R                  
JUNEAU         FAIR      64  55  71 N3        30.13R                  
$$

LSZ147-162-221400-
LAKE SUPERIOR
  
STATION/POSITION TIME  TEMP    WIND        PRES    WAVE
                       AIR SEA DIR/SP/G            HT/PER
                 (UTC) (F)     (DEG/KT/KT) (MB)    (FT/S)
W MID LAKE BUOY  1250   56 48  270/  8/  8 1019.6R   0
$$
 
LMZ867-665-643>646-221400-
LAKE MICHIGAN
  
STATION/POSITION TIME  TEMP    WIND        PRES    WAVE
                       AIR SEA DIR/SP/G            HT/PER
                 (UTC) (F)     (DEG/KT/KT) (MB)    (FT/S)
CHAMBERS ISLAND  1240   65     310/ 12/ 15 1017.9S
S GREEN BAY BUOY 1230   68 72  340/ 14/ 16 1019.2R
N MID LAKE BUOY  1250   62 63  360/ 14/ 16 1018.6R   2/ 4
NORTHPORT PIER   1240   65     310/  9/ 10 1018.3R
KEWAUNEE LAKESHO 1224   64     340/  5/  9 1018.3
SHEBOYGAN LAKESH 1300   62     340/ 12/ 13 1018.9R
ATWATER BUOY     1230   63 64  360/ 10/ 14 1019.0R   3/ 6
MILWAUKEE LAKESH 1230   63     360/ 15/ 17   N/A
S MID LAKE BUOY  1250   65 69   10/ 19/ 23 1017.7R   5/ 6
KENOSHA   LAKESH 1300   63     360/ 16/ 18 1018.3
$$

TC  - TEMPERATURE IN CELSIUS
VSB - VISIBILITY IN STATUTE MILES
WCI - WIND CHILL INDEX
HX  - HEAT INDEX